Weather History for Van, Turkey

Change the Weather History Date:

Wednesday, November 14, 2012

  Actual Average Record
Temperature  
Mean Temperature 39 °F -  
Max Temperature 48 °F 45 °F 55 °F (2004)
Min Temperature 30 °F 28 °F 15 °F (2011)
Degree Days  
Heating Degree Days 26    
Moisture  
Dew Point 33 °F    
Average Humidity 70    
Maximum Humidity 93    
Minimum Humidity 47    
Precipitation  
Precipitation 0.00 in 0.05 in - ()
Sea Level Pressure  
Sea Level Pressure 30.05 in    
Wind  
Wind Speed 5 mph ()    
Max Wind Speed 8 mph    
Max Gust Speed -    
Visibility 6.2 miles    
Events      
Averages and records for this station are not official NWS values.
T = Trace of Precipitation, MM = Missing Value Source: Averaged Metar Reports

Daily Weather History Graph

Daily Weather History Graph

Search for Another Location

Airport:

Trip Planner

Search our weather history database for the weather conditions in past years. The results will help you decide how hot, cold, wet, or windy it might be!

Date:

Astronomy

Nov. 14, 2012 Rise Set
Actual Time 5:47 AM EET 3:54 PM EET
Civil Twilight 5:19 AM EET 4:22 PM EET
Nautical Twilight 4:47 AM EET 4:54 PM EET
Astronomical Twilight 4:15 AM EET 5:25 PM EET
Moon 6:10 AM EET (11/14) 4:22 PM EET (11/14)
Length of Visible Light 11h 03m
Length of Day
10h 07m
New Moon, 0% of the Moon is Illuminated
Nov 14
New Moon
Nov 20
First Quarter
Nov 28
Full
Dec 6
Last Quarter
Dec 13
New

Hourly Weather History & Observations

Time (EET) Temp. Windchill Dew Point Humidity Pressure Visibility Wind Dir Wind Speed Gust Speed Precip Events Conditions
12:50 AM 37.4 °F 31.4 °F 30.2 °F 75% 30.01 in 6.2 mi ENE 8.1 mph - N/A   Mostly Cloudy
1:50 AM 37.4 °F 32.1 °F 30.2 °F 75% 30.01 in 6.2 mi East 6.9 mph - N/A   Mostly Cloudy
2:00 AM 37 °F - 31 °F 69%  in 6 mi East 6.9 mph - -   Partly Cloudy
2:50 AM 35.6 °F 29.2 °F 30.2 °F 81% 30.01 in 6.2 mi East 8.1 mph - N/A   Mostly Cloudy
3:50 AM 37.4 °F - 30.2 °F 75% 30.01 in 6.2 mi Variable 2.3 mph - N/A   Mostly Cloudy
4:50 AM 32.0 °F - 28.4 °F 87% 30.01 in 6.2 mi Variable 2.3 mph - N/A   Scattered Clouds
5:50 AM 32.0 °F 28.7 °F 30.2 °F 93% 30.01 in 6.2 mi NE 3.5 mph - N/A   Scattered Clouds
6:50 AM 35.6 °F - 32.0 °F 87% 30.04 in 6.2 mi Variable 2.3 mph - N/A   Scattered Clouds
7:50 AM 44.6 °F 42.2 °F 32.0 °F 61% 30.04 in 6.2 mi NE 4.6 mph - N/A   Partly Cloudy
8:00 AM 45 °F - 31 °F 47%  in 6 mi NE 4.6 mph - -   Scattered Clouds
8:50 AM 46.4 °F 45.2 °F 33.8 °F 62% 30.04 in 6.2 mi WNW 3.5 mph - N/A   Scattered Clouds
9:50 AM 46.4 °F 44.3 °F 33.8 °F 62% 30.04 in 6.2 mi Variable 4.6 mph - N/A   Scattered Clouds
10:50 AM 46.4 °F 44.3 °F 32.0 °F 57% 30.04 in 6.2 mi WNW 4.6 mph - N/A   Mostly Cloudy
11:50 AM 48.2 °F - 30.2 °F 50% 30.01 in 6.2 mi Variable 4.6 mph - N/A   Mostly Cloudy
12:50 PM 48.2 °F - 32.0 °F 54% 30.04 in 6.2 mi West 3.5 mph - N/A   Mostly Cloudy
1:50 PM 46.4 °F 43.5 °F 35.6 °F 66% 30.04 in 6.2 mi West 5.8 mph - N/A   Mostly Cloudy
2:00 PM 47 °F - 35 °F 51%  in 6 mi West 6.9 mph - -   Mostly Cloudy
2:50 PM 46.4 °F 44.3 °F 35.6 °F 66% 30.04 in 6.2 mi West 4.6 mph - N/A   Mostly Cloudy
3:50 PM 44.6 °F - 35.6 °F 71% 30.04 in 6.2 mi Variable 1.2 mph - N/A   Mostly Cloudy
4:50 PM 42.8 °F 40.1 °F 35.6 °F 76% 30.06 in 6.2 mi SSE 4.6 mph - N/A   Mostly Cloudy
5:50 PM 42.8 °F 39.3 °F 33.8 °F 70% 30.06 in 6.2 mi SE 5.8 mph - N/A   Mostly Cloudy
6:50 PM 44.6 °F 42.2 °F 33.8 °F 66% 30.06 in 6.2 mi ENE 4.6 mph - N/A   Mostly Cloudy
7:50 PM 41.0 °F 39.0 °F 35.6 °F 81% 30.09 in 6.2 mi East 3.5 mph - N/A   Mostly Cloudy
8:00 PM 42 °F - 35 °F 68%  in 6 mi East 3.5 mph - -   Partly Cloudy
8:50 PM 42.8 °F 40.1 °F 35.6 °F 76% 30.09 in 6.2 mi NNE 4.6 mph - N/A   Mostly Cloudy
9:50 PM 46.4 °F 42.9 °F 35.6 °F 66% 30.09 in 6.2 mi WSW 6.9 mph - N/A   Mostly Cloudy
10:50 PM 42.8 °F - 35.6 °F 76% 30.09 in 6.2 mi Variable 2.3 mph - N/A   Mostly Cloudy
11:50 PM 37.4 °F 34.9 °F 35.6 °F 93% 30.12 in 6.2 mi ESE 3.5 mph - N/A   Mostly Cloudy